This is the latest recevied weather packets stored in our database for station/object KJ7HSW. If no packets are shown the sender has not sent any weather packets the latest 10 day(s).
| Time | Temp. | Humidity | Pressure | Rain* | Wind** | Luminosity | Snow |
|---|---|---|---|---|---|---|---|
| 1778164856 | 11.67° C | 88% | 1020.3 hPa | 0 mm | - | 62 W/m² | - |
| 1778164553 | 11.67° C | 88% | 1020.3 hPa | 0 mm | - | 61 W/m² | - |
| 1778164251 | 11.67° C | 88% | 1020.2 hPa | 0 mm | - | 58 W/m² | - |
| 1778163950 | 11.67° C | 88% | 1020.3 hPa | 0 mm | - | 59 W/m² | - |
| 1778163648 | 11.11° C | 88% | 1020.3 hPa | 0 mm | - | 61 W/m² | - |
| 1778163344 | 11.11° C | 89% | 1020.3 hPa | 0 mm | - | 49 W/m² | - |
| 1778163041 | 11.11° C | 89% | 1020.3 hPa | 0 mm | - | 43 W/m² | - |
| 1778162737 | 11.11° C | 90% | 1020.5 hPa | 0 mm | - | 38 W/m² | - |
| 1778162435 | 11.11° C | 89% | 1020.4 hPa | 0 mm | - | 33 W/m² | - |
| 1778162132 | 11.11° C | 89% | 1020.2 hPa | 0 mm | - | 32 W/m² | - |
| 1778161829 | 11.11° C | 90% | 1020.3 hPa | 0 mm | - | 28 W/m² | - |
| 1778161525 | 11.11° C | 90% | 1020.3 hPa | 0 mm | - | 27 W/m² | - |
| 1778161221 | 11.11° C | 90% | 1020.3 hPa | 0 mm | - | 25 W/m² | - |
| 1778160917 | 11.11° C | 91% | 1020.4 hPa | 0 mm | - | 21 W/m² | - |
| 1778160616 | 11.11° C | 91% | 1020.2 hPa | 0 mm | - | 18 W/m² | - |
| 1778160312 | 10.56° C | 91% | 1020.1 hPa | 0 mm | - | 17 W/m² | - |
| 1778160008 | 10.56° C | 91% | 1019.9 hPa | 0 mm | - | 15 W/m² | - |
| 1778159705 | 10.56° C | 91% | 1020.1 hPa | 0 mm | - | 14 W/m² | - |
| 1778159403 | 10.56° C | 91% | 1020.1 hPa | 0 mm | - | 12 W/m² | - |
| 1778159099 | 10.56° C | 91% | 1020.3 hPa | 0 mm | - | 10 W/m² | - |
| 1778158798 | 10.56° C | 91% | 1020 hPa | 0 mm | - | 8 W/m² | - |
| 1778158496 | 10.56° C | 90% | 1020.1 hPa | 0 mm | - | 5 W/m² | - |
| 1778158193 | 10.56° C | 90% | 1020.2 hPa | 0 mm | - | 3 W/m² | - |
| 1778157889 | 10.56° C | 90% | 1020.2 hPa | 0 mm | - | 2 W/m² | - |
| 1778157587 | 10.56° C | 90% | 1020.4 hPa | 0 mm | - | 1 W/m² | - |
* Rain latest hour (hover to see other rain measurements)
** Current wind speed in m/s (hover to see current wind gust speed)